TimeMDT,TemperatureF,Dew PointF,Humidity,Sea Level PressureIn,VisibilityMPH,Wind Direction,Wind SpeedMPH,Gust SpeedMPH,PrecipitationIn,Events,Conditions,WindDirDegrees,DateUTC
12:15 AM,19.4,17.6,93,30.02,10.0,NE,6.9,-,N/A,,Overcast,40,2013-10-29 06:15:00
12:35 AM,19.4,19.4,100,30.03,10.0,NE,3.5,-,N/A,,Overcast,40,2013-10-29 06:35:00
12:55 AM,19.4,19.4,100,30.02,10.0,NNE,4.6,-,N/A,,Overcast,30,2013-10-29 06:55:00
1:15 AM,19.4,19.4,100,30.01,10.0,NE,4.6,-,N/A,,Overcast,40,2013-10-29 07:15:00
1:35 AM,19.4,19.4,100,30.01,10.0,NNE,4.6,-,N/A,,Overcast,30,2013-10-29 07:35:00
2:15 AM,19.4,19.4,100,30.01,10.0,NE,5.8,-,N/A,,Overcast,40,2013-10-29 08:15:00
2:35 AM,19.4,19.4,100,30.00,10.0,NNE,5.8,-,N/A,,Overcast,30,2013-10-29 08:35:00
2:55 AM,19.4,17.6,93,30.00,10.0,NNE,6.9,-,N/A,,Overcast,30,2013-10-29 08:55:00
3:15 AM,19.4,19.4,100,30.00,10.0,NNE,5.8,-,N/A,,Overcast,30,2013-10-29 09:15:00
3:35 AM,19.4,19.4,100,29.99,10.0,NNE,6.9,-,N/A,,Overcast,20,2013-10-29 09:35:00
4:15 AM,19.4,19.4,100,29.98,10.0,NNE,4.6,-,N/A,,Overcast,30,2013-10-29 10:15:00
4:35 AM,19.4,17.6,93,29.98,10.0,NNE,5.8,-,N/A,,Overcast,30,2013-10-29 10:35:00
4:55 AM,19.4,17.6,93,29.98,10.0,NE,5.8,-,N/A,,Overcast,40,2013-10-29 10:55:00
5:15 AM,19.4,19.4,100,29.98,10.0,NE,3.5,-,N/A,,Overcast,40,2013-10-29 11:15:00
5:35 AM,19.4,19.4,100,29.98,10.0,NE,3.5,-,N/A,,Overcast,40,2013-10-29 11:35:00
5:55 AM,19.4,19.4,100,29.97,10.0,Calm,Calm,-,N/A,,Overcast,0,2013-10-29 11:55:00
6:15 AM,19.4,19.4,100,29.96,10.0,Calm,Calm,-,N/A,,Overcast,0,2013-10-29 12:15:00
6:35 AM,21.2,19.4,93,29.96,10.0,Calm,Calm,-,N/A,,Overcast,0,2013-10-29 12:35:00
6:55 AM,21.2,19.4,93,29.95,10.0,Calm,Calm,-,N/A,,Overcast,0,2013-10-29 12:55:00
7:15 AM,21.2,19.4,93,29.94,10.0,Calm,Calm,-,N/A,,Overcast,0,2013-10-29 13:15:00
7:35 AM,21.2,19.4,93,29.95,10.0,Calm,Calm,-,N/A,,Overcast,0,2013-10-29 13:35:00
7:55 AM,21.2,19.4,93,29.95,10.0,Calm,Calm,-,N/A,,Overcast,0,2013-10-29 13:55:00
8:15 AM,21.2,19.4,93,29.95,10.0,NNW,3.5,-,N/A,,Overcast,330,2013-10-29 14:15:00
8:35 AM,21.2,19.4,93,29.95,10.0,Calm,Calm,-,N/A,,Overcast,0,2013-10-29 14:35:00
8:55 AM,21.2,19.4,93,29.95,10.0,North,3.5,-,N/A,,Overcast,10,2013-10-29 14:55:00
9:15 AM,21.2,19.4,93,29.95,10.0,NE,5.8,-,N/A,,Overcast,50,2013-10-29 15:15:00
9:35 AM,21.2,19.4,93,29.95,10.0,NE,4.6,-,N/A,,Overcast,40,2013-10-29 15:35:00
9:55 AM,21.2,19.4,93,29.95,10.0,NE,3.5,-,N/A,,Overcast,50,2013-10-29 15:55:00
10:15 AM,21.2,21.2,100,29.95,8.0,Calm,Calm,-,N/A,,Overcast,0,2013-10-29 16:15:00
10:35 AM,21.2,21.2,100,29.95,10.0,Calm,Calm,-,N/A,,Overcast,0,2013-10-29 16:35:00
10:55 AM,21.2,21.2,100,29.94,5.0,Calm,Calm,-,N/A,,Overcast,0,2013-10-29 16:55:00
11:15 AM,24.8,21.2,86,29.94,7.0,North,3.5,-,N/A,,Overcast,360,2013-10-29 17:15:00
11:35 AM,24.8,21.2,86,29.95,10.0,North,3.5,-,N/A,,Overcast,10,2013-10-29 17:35:00
11:55 AM,24.8,23.0,93,29.94,10.0,NE,3.5,-,N/A,,Overcast,40,2013-10-29 17:55:00
12:15 PM,24.8,23.0,93,29.94,10.0,North,4.6,-,N/A,,Overcast,10,2013-10-29 18:15:00
12:35 PM,26.6,24.8,93,29.93,10.0,North,4.6,-,N/A,,Overcast,350,2013-10-29 18:35:00
12:55 PM,26.6,24.8,93,29.92,10.0,North,3.5,-,N/A,,Overcast,10,2013-10-29 18:55:00
1:15 PM,26.6,23.0,86,29.92,10.0,NE,3.5,-,N/A,,Overcast,50,2013-10-29 19:15:00
1:35 PM,26.6,23.0,86,29.91,10.0,Calm,Calm,-,N/A,,Overcast,0,2013-10-29 19:35:00
1:55 PM,28.4,24.8,86,29.91,10.0,Calm,Calm,-,N/A,,Overcast,0,2013-10-29 19:55:00
2:15 PM,28.4,24.8,86,29.90,10.0,Calm,Calm,-,N/A,,Overcast,0,2013-10-29 20:15:00
2:35 PM,28.4,24.8,86,29.88,10.0,Calm,Calm,-,N/A,,Overcast,0,2013-10-29 20:35:00
2:55 PM,30.2,24.8,80,29.89,10.0,Calm,Calm,-,N/A,,Overcast,0,2013-10-29 20:55:00
3:15 PM,30.2,24.8,80,29.89,10.0,SE,5.8,-,N/A,,Overcast,130,2013-10-29 21:15:00
3:35 PM,30.2,24.8,80,29.88,10.0,East,9.2,-,N/A,,Overcast,100,2013-10-29 21:35:00
3:55 PM,30.2,26.6,86,29.88,10.0,ESE,6.9,-,N/A,,Overcast,110,2013-10-29 21:55:00
4:15 PM,30.2,26.6,86,29.88,10.0,ESE,4.6,-,N/A,,Overcast,120,2013-10-29 22:15:00
4:35 PM,30.2,26.6,86,29.88,10.0,Calm,Calm,-,N/A,,Overcast,0,2013-10-29 22:35:00
4:55 PM,30.2,26.6,86,29.88,10.0,NNE,5.8,-,N/A,,Overcast,20,2013-10-29 22:55:00
5:15 PM,30.2,24.8,80,29.88,10.0,NE,4.6,-,N/A,,Overcast,50,2013-10-29 23:15:00
5:35 PM,30.2,26.6,86,29.88,10.0,Calm,Calm,-,N/A,,Overcast,0,2013-10-29 23:35:00
5:55 PM,30.2,26.6,86,29.88,10.0,ESE,5.8,-,N/A,,Overcast,120,2013-10-29 23:55:00
6:15 PM,30.2,26.6,86,29.87,10.0,ESE,4.6,-,N/A,,Overcast,120,2013-10-30 00:15:00
6:35 PM,30.2,26.6,86,29.87,10.0,ESE,4.6,-,N/A,,Overcast,120,2013-10-30 00:35:00
6:55 PM,30.2,26.6,86,29.88,10.0,ESE,5.8,-,N/A,,Overcast,120,2013-10-30 00:55:00
7:15 PM,30.2,26.6,86,29.88,10.0,SE,4.6,-,N/A,,Overcast,130,2013-10-30 01:15:00
7:35 PM,30.2,26.6,86,29.87,10.0,South,4.6,-,N/A,,Overcast,170,2013-10-30 01:35:00
7:55 PM,30.2,26.6,86,29.87,10.0,South,3.5,-,N/A,,Overcast,180,2013-10-30 01:55:00
8:15 PM,30.2,26.6,86,29.88,10.0,East,6.9,-,N/A,,Overcast,100,2013-10-30 02:15:00
8:35 PM,30.2,26.6,86,29.87,10.0,SE,5.8,-,N/A,,Overcast,130,2013-10-30 02:35:00
8:55 PM,30.2,26.6,86,29.87,9.0,SSE,3.5,-,N/A,,Overcast,160,2013-10-30 02:55:00
9:15 PM,30.2,28.4,93,29.87,7.0,ESE,3.5,-,N/A,,Overcast,110,2013-10-30 03:15:00
9:35 PM,30.2,28.4,93,29.88,4.0,Calm,Calm,-,N/A,,Overcast,0,2013-10-30 03:35:00
9:55 PM,30.2,28.4,93,29.88,3.0,Calm,Calm,-,N/A,,Overcast,0,2013-10-30 03:55:00
10:15 PM,30.2,28.4,93,29.88,-9999.0,Calm,Calm,-,N/A,,Unknown,0,2013-10-30 04:15:00
10:35 PM,30.2,28.4,93,29.88,5.0,South,3.5,-,N/A,,Overcast,170,2013-10-30 04:35:00
10:55 PM,30.2,28.4,93,29.87,10.0,South,4.6,-,N/A,,Overcast,190,2013-10-30 04:55:00
11:15 PM,30.2,28.4,93,29.85,10.0,Calm,Calm,-,N/A,,Mostly Cloudy,0,2013-10-30 05:15:00
11:35 PM,30.2,28.4,93,29.85,10.0,Calm,Calm,-,N/A,,Overcast,0,2013-10-30 05:35:00
11:55 PM,30.2,28.4,93,29.84,-9999.0,Calm,Calm,-,N/A,,Unknown,0,2013-10-30 05:55:00